Simultaneous Nadir Overpasses (SNOs) Predictions

Prediction of SNOs between TERRA and METOP-C Satellite Orbit:

Table of predicted SNOs for the next 14.0 days since TLE Epoch: 12/11/2021
Index Date (TERRA) Time (TERRA) Lat,Lon (TERRA) SZA (TERRA ) Date (METOP-C) Time (METOP-C) Lat,Lon (METOP-C) SZA (METOP-C ) Distance(km) Time Diff (sec)
1 12/12/2021 02:02:59 81.21,-167.40 106.70 12/12/2021 02:01:59 81.20,-167.59 106.65 3.29 60
2 12/12/2021 02:52:25 -81.22, 0.49 73.27 12/12/2021 02:52:37 -81.22, 0.52 73.26 0.58 12
3 12/14/2021 21:37:08 81.22,-100.82 106.86 12/14/2021 21:36:20 81.21,-100.91 106.82 1.80 48
4 12/14/2021 22:26:35 -81.21, 66.72 73.16 12/14/2021 22:26:59 -81.22, 66.79 73.14 1.50 24
5 12/17/2021 17:11:19 81.20, -34.65 106.90 12/17/2021 17:10:43 81.21, -34.64 106.89 0.68 36
6 12/17/2021 18:00:45 -81.22, 133.28 73.06 12/17/2021 18:01:21 -81.22, 133.44 73.03 2.69 36
7 12/20/2021 12:45:29 81.20, 31.85 106.92 12/20/2021 12:45:05 81.21, 31.99 106.93 2.61 24
8 12/20/2021 13:34:55 -81.22,-160.19 73.03 12/20/2021 13:35:44 -81.22,-160.31 73.03 2.08 49
9 12/23/2021 08:19:38 81.20, 98.30 106.88 12/23/2021 08:19:27 81.21, 98.22 106.87 1.48 11



Historial Predications of SNOs between TERRA and METOP-C
